period_start,C,m1,H,J0,J1,J2,J3,J4,J5,JA,JB,JC,JD,JJ,JK,JN,#
2016-02-26 00:03:48,0.16,4.55,0.00,22.34,26.87,30.50,14.68,48.56,1022.11,2032.24,2140.47,2104.15,2376.56,600.11,600.64,30.00,0000 0000 0000 0000 000000
2016-02-26 00:08:50,0.20,4.56,0.00,22.37,26.87,30.49,14.72,48.58,1022.00,2032.38,2138.45,2102.66,2374.85,599.94,600.41,30.05,0000 0000 0000 0000 000000
2016-02-26 00:13:51,0.17,4.57,0.00,22.38,26.87,30.53,14.74,48.62,1021.99,2032.25,2136.32,2101.07,2373.01,600.31,600.75,30.10,0000 0000 0000 0000 000000
2016-02-26 00:18:52,0.20,4.58,0.00,22.39,26.87,30.52,14.72,48.67,1021.99,2032.22,2134.10,2099.51,2371.16,599.89,600.14,30.15,0000 0000 0000 0000 000000
2016-02-26 00:23:53,0.18,4.59,0.00,22.40,26.87,30.52,14.71,48.62,1022.01,2032.15,2132.07,2097.90,2369.35,599.93,600.37,30.20,0000 0000 0000 0000 000000
2016-02-26 00:28:54,0.20,4.60,0.00,22.39,26.87,30.54,14.68,48.64,1021.99,2032.16,2129.71,2096.31,2367.51,599.79,600.17,30.25,0000 0000 0000 0000 000000
2016-02-26 00:33:55,0.24,4.61,0.00,22.40,26.87,30.51,14.72,48.71,1022.00,2032.39,2127.61,2094.65,2365.80,599.82,600.21,30.30,0000 0000 0000 0000 000000
2016-02-26 00:38:56,0.16,4.62,0.00,22.41,26.87,30.52,14.72,48.77,1022.00,2032.49,2125.62,2093.18,2364.07,600.02,600.41,30.35,0000 0000 0000 0000 000000
2016-02-26 00:43:58,0.19,4.63,0.00,22.40,26.87,30.54,14.67,48.74,1021.99,2032.39,2123.65,2091.67,2362.38,600.02,600.41,30.40,0000 0000 0000 0000 000000
2016-02-26 00:48:59,0.16,4.64,0.00,22.42,26.87,30.56,14.70,48.73,1021.99,2032.18,2121.44,2090.05,2360.52,600.00,600.35,30.45,0000 0000 0000 0000 000000
2016-02-26 00:54:00,0.22,4.65,0.00,22.45,26.87,30.55,14.70,48.69,1021.99,2032.17,2119.20,2088.43,2358.61,600.17,600.48,30.50,0000 0000 0000 0000 000000
2016-02-26 00:59:01,0.22,4.66,0.00,22.47,26.87,30.55,14.62,48.65,1021.99,2032.29,2116.98,2086.79,2356.71,599.82,600.15,30.55,0000 0000 0000 0000 000000
2016-02-26 01:04:03,0.17,4.67,0.00,22.47,26.89,30.54,14.72,48.78,1021.99,2032.18,2114.84,2085.14,2354.82,600.05,600.38,30.60,0000 0000 0000 0000 000000
2016-02-26 01:09:04,0.21,4.68,0.00,22.47,26.90,30.59,14.77,48.96,1021.99,2032.12,2112.67,2083.53,2352.95,600.18,600.37,30.65,0000 0000 0000 0000 000000
2016-02-26 01:14:05,0.18,4.69,0.00,22.49,26.90,30.54,14.83,49.01,1021.99,2032.07,2110.64,2081.86,2351.13,600.35,600.50,30.70,0000 0000 0000 0000 000000
2016-02-26 01:19:06,0.17,4.70,0.00,22.49,26.90,30.56,14.62,48.75,1021.99,2032.02,2108.66,2080.35,2349.37,599.90,600.12,30.75,0000 0000 0000 0000 000000
2016-02-26 01:24:07,0.19,4.71,0.00,22.53,26.92,30.57,14.66,48.83,1022.00,2032.03,2106.70,2078.80,2347.63,599.76,600.00,30.80,0000 0000 0000 0000 000000
2016-02-26 01:29:09,0.19,4.72,0.00,22.54,26.92,30.57,14.66,48.79,1022.06,2032.01,2104.55,2077.20,2345.77,599.99,600.20,30.85,0000 0000 0000 0000 000000
2016-02-26 01:34:10,0.19,4.73,0.00,22.57,26.94,30.58,14.70,48.83,1022.14,2032.00,2102.54,2075.65,2344.06,599.93,600.07,30.90,0000 0000 0000 0000 000000
2016-02-26 01:39:11,0.18,4.74,0.00,22.61,26.95,30.63,14.61,48.83,1022.10,2032.00,2100.52,2074.15,2342.28,599.81,599.89,30.95,0000 0000 0000 0000 000000
2016-02-26 01:44:12,0.19,4.75,0.00,22.64,26.96,30.64,14.69,48.92,1022.15,2032.00,2098.50,2072.64,2340.55,600.23,600.26,31.00,0000 0000 0000 0000 000000
2016-02-26 01:49:13,0.18,4.76,0.00,22.67,26.97,30.64,14.66,48.83,1022.32,2032.00,2096.50,2071.13,2338.79,600.02,600.13,31.05,0000 0000 0000 0000 000000
2016-02-26 01:54:14,0.19,4.77,0.00,22.67,26.99,30.69,14.67,48.85,1022.30,2032.00,2094.51,2069.62,2336.97,600.20,600.21,31.10,0000 0000 0000 0000 000000
2016-02-26 01:59:16,0.18,4.78,0.00,22.69,27.00,30.68,14.72,48.76,1022.39,2032.00,2092.46,2068.04,2335.28,600.00,600.10,31.15,0000 0000 0000 0000 000000
2016-02-26 02:04:17,0.20,4.79,0.00,22.71,27.02,30.73,14.68,48.98,1022.45,2032.00,2090.40,2066.56,2333.49,599.71,599.77,31.20,0000 0000 0000 0000 000000
2016-02-26 02:09:18,0.18,4.80,0.00,22.73,27.03,30.71,14.56,48.77,1022.47,2031.99,2088.39,2064.98,2331.72,599.79,599.77,31.25,0000 0000 0000 0000 000000
2016-02-26 02:14:20,0.19,4.81,0.00,22.74,27.05,30.73,14.63,48.87,1022.48,2031.98,2086.43,2063.48,2329.98,599.59,599.54,31.30,0000 0000 0000 0000 000000
2016-02-26 02:19:21,0.19,4.82,0.00,22.89,27.06,30.74,14.62,48.82,1022.48,2031.97,2084.39,2061.90,2328.20,600.07,599.77,31.35,0000 0000 0000 0000 000000
2016-02-26 02:24:22,0.17,4.83,0.00,23.08,27.09,30.76,14.64,48.99,1022.48,2031.93,2082.57,2060.44,2326.56,600.08,599.44,31.40,0000 0000 0000 0000 000000
2016-02-26 02:29:23,0.13,4.83,0.00,23.14,27.12,30.76,14.69,48.83,1022.48,2031.58,2080.72,2058.88,2324.83,600.16,599.30,31.45,0000 0000 0000 0000 000000
2016-02-26 02:34:24,0.14,4.84,0.00,23.06,27.15,30.87,14.69,48.97,1022.48,2031.15,2078.77,2057.44,2323.14,600.33,599.68,31.50,0000 0000 0000 0000 000000
2016-02-26 02:39:26,0.20,4.85,0.00,22.95,27.17,30.90,14.69,49.29,1022.48,2031.02,2076.61,2055.80,2321.32,599.94,599.45,31.55,0000 0000 0000 0000 000000
2016-02-26 02:44:27,0.19,4.86,0.00,22.90,27.18,30.88,14.58,49.16,1022.48,2031.00,2074.37,2054.27,2319.41,599.61,599.32,31.60,0000 0000 0000 0000 000000
2016-02-26 02:49:28,0.21,4.87,0.00,22.90,27.20,30.96,14.63,48.99,1022.48,2031.00,2072.33,2052.64,2317.59,600.18,599.88,31.65,0000 0000 0000 0000 000000
2016-02-26 02:54:30,0.18,4.88,0.00,22.89,27.21,30.96,14.62,49.06,1022.48,2031.00,2070.31,2051.10,2315.83,599.76,599.50,31.70,0000 0000 0000 0000 000000
2016-02-26 02:59:31,0.19,4.89,0.00,22.88,27.22,30.94,14.66,48.78,1022.48,2030.99,2068.28,2049.63,2314.10,599.99,599.61,31.75,0000 0000 0000 0000 000000
2016-02-26 03:04:32,0.17,4.90,0.00,22.89,27.22,30.95,14.72,48.96,1022.48,2030.99,2066.33,2048.16,2312.45,600.38,600.12,31.80,0000 0000 0000 0000 000000
2016-02-26 03:09:34,0.17,4.91,0.00,22.87,27.25,30.94,14.64,48.95,1022.48,2030.99,2064.41,2046.89,2310.78,599.78,599.48,31.85,0000 0000 0000 0000 000000
2016-02-26 03:14:35,0.18,4.92,0.00,23.01,27.25,30.93,14.69,48.87,1022.48,2030.97,2062.59,2045.58,2309.07,599.97,599.36,31.90,0000 0000 0000 0000 000000
2016-02-26 03:19:37,0.16,4.93,0.00,23.26,27.28,30.89,14.64,49.00,1022.48,2030.93,2060.77,2044.13,2307.57,600.28,599.16,31.95,0000 0000 0000 0000 000000
2016-02-26 03:24:38,0.18,4.93,0.00,23.32,27.31,30.98,14.59,48.70,1022.48,2030.89,2058.97,2042.71,2305.94,599.92,598.72,32.00,0000 0000 0000 0000 000000
2016-02-26 03:29:39,0.10,4.94,0.00,23.32,27.33,31.10,14.57,48.96,1022.48,2030.54,2057.24,2041.38,2304.43,599.82,598.60,32.05,0000 0000 0000 0000 000000
2016-02-26 03:34:40,0.15,4.95,0.00,23.25,27.36,31.19,14.59,48.98,1022.48,2030.10,2055.35,2039.92,2302.81,599.83,598.82,32.10,0000 0000 0000 0000 000000
2016-02-26 03:39:42,0.18,4.96,0.00,23.12,27.37,31.21,14.66,49.06,1022.46,2030.01,2053.32,2038.41,2301.10,599.91,599.22,32.15,0000 0000 0000 0000 000000
2016-02-26 03:44:42,0.20,4.97,0.00,23.03,27.37,31.22,14.66,49.05,1022.47,2030.00,2051.31,2036.86,2299.37,600.38,599.79,32.20,0000 0000 0000 0000 000000
2016-02-26 03:49:44,0.17,4.98,0.00,22.96,27.39,31.18,14.66,49.15,1022.47,2030.00,2049.39,2035.50,2297.70,599.69,599.28,32.26,0000 0000 0000 0000 000000
2016-02-26 03:54:45,0.16,4.99,0.00,22.92,27.39,31.08,14.70,49.06,1022.44,2030.00,2047.52,2034.09,2296.11,600.05,599.68,32.31,0000 0000 0000 0000 000000
2016-02-26 03:59:46,0.18,4.99,0.00,22.90,27.39,31.06,14.70,48.86,1022.43,2030.00,2045.95,2032.73,2294.54,600.16,599.80,32.36,0000 0000 0000 0000 000000
2016-02-26 04:04:48,0.15,5.00,0.00,22.90,27.39,31.03,14.63,48.76,1022.48,2030.00,2044.19,2031.49,2292.99,599.68,599.37,32.41,0000 0000 0000 0000 000000
2016-02-26 04:09:49,0.16,5.01,0.00,22.90,27.39,31.05,14.71,48.90,1022.48,2030.00,2042.45,2030.12,2291.52,600.18,599.85,32.46,0000 0000 0000 0000 000000
2016-02-26 04:14:50,0.17,5.02,0.00,22.89,27.38,31.04,14.64,48.88,1022.48,2030.00,2040.72,2028.81,2290.06,600.06,599.79,32.51,0000 0000 0000 0000 000000
2016-02-26 04:19:52,0.17,5.03,0.00,22.93,27.37,31.04,14.69,48.94,1022.48,2030.00,2039.05,2027.61,2288.63,600.13,599.86,32.56,0000 0000 0000 0000 000000
2016-02-26 04:24:53,0.14,5.04,0.00,23.21,27.39,31.01,14.62,48.83,1022.48,2030.00,2037.45,2026.30,2287.17,599.96,599.07,32.61,0000 0000 0000 0000 000000
2016-02-26 04:29:54,0.18,5.04,0.00,23.31,27.41,30.97,14.62,48.77,1022.49,2030.00,2035.68,2024.92,2285.58,600.22,599.05,32.66,0000 0000 0000 0000 000000
2016-02-26 04:34:55,0.18,5.05,0.00,23.36,27.42,31.05,14.62,48.88,1022.50,2030.00,2033.85,2023.56,2283.96,600.10,598.86,32.71,0000 0000 0000 0000 000000
2016-02-26 04:39:56,0.17,5.06,0.00,23.41,27.45,31.17,14.66,49.03,1022.54,2030.00,2032.03,2022.08,2282.32,600.12,598.81,32.76,0000 0000 0000 0000 000000
2016-02-26 04:44:58,0.20,5.07,0.00,23.25,27.46,31.26,14.74,48.96,1022.58,2029.96,2030.00,2020.62,2280.64,600.10,599.12,32.81,0000 0000 0000 0000 000000
2016-02-26 04:49:59,0.16,5.08,0.00,23.10,27.47,31.28,14.68,49.04,1022.70,2029.97,2028.15,2019.28,2279.04,599.97,599.36,32.86,0000 0000 0000 0000 000000
2016-02-26 04:55:00,0.17,5.09,0.00,23.02,27.47,31.25,14.66,49.00,1022.86,2029.97,2026.33,2017.92,2277.51,599.95,599.55,32.91,0000 0000 0000 0000 000000
2016-02-26 05:00:01,0.17,5.10,0.00,22.97,27.47,31.18,14.62,48.96,1022.93,2029.93,2024.57,2016.61,2276.00,599.89,599.78,32.96,0000 0000 0000 0000 000000
2016-02-26 05:05:03,0.17,5.11,0.00,22.95,27.47,31.12,14.75,49.04,1022.95,2029.96,2022.78,2015.43,2274.51,600.18,600.02,33.01,0000 0000 0000 0000 000000
2016-02-26 05:10:04,0.16,5.12,0.00,22.94,27.47,31.11,14.66,48.86,1022.93,2029.96,2021.03,2013.96,2272.93,600.08,599.90,33.06,0000 0000 0000 0000 000000
2016-02-26 05:15:05,0.17,5.13,0.00,22.92,27.47,31.13,14.71,49.02,1022.71,2029.93,2019.35,2012.69,2271.54,600.15,599.92,33.11,0000 0000 0000 0000 000000
2016-02-26 05:20:06,0.17,5.13,0.00,22.90,27.45,31.13,14.65,48.92,1022.67,2029.97,2017.55,2011.44,2269.92,600.03,599.83,33.16,0000 0000 0000 0000 000000
2016-02-26 05:25:07,0.16,5.14,0.00,22.92,27.45,31.08,14.66,48.88,1022.74,2029.99,2015.82,2010.14,2268.48,599.95,599.74,33.21,0000 0000 0000 0000 000000
2016-02-26 05:30:08,0.15,5.15,0.00,23.16,27.46,31.07,14.67,48.95,1022.60,2029.99,2014.18,2008.88,2267.07,599.87,599.02,33.27,0000 0000 0000 0000 000000
2016-02-26 05:35:09,0.19,5.16,0.00,23.32,27.47,31.04,14.62,49.13,1022.71,2029.97,2012.50,2007.52,2265.51,600.35,599.32,33.32,0000 0000 0000 0000 000000
2016-02-26 05:40:11,0.15,5.17,0.00,23.35,27.49,31.06,14.64,48.82,1022.88,2029.95,2010.75,2006.22,2263.99,599.83,598.96,33.37,0000 0000 0000 0000 000000
2016-02-26 05:45:12,0.18,5.18,0.00,23.37,27.50,31.21,14.69,49.20,1022.93,2029.95,2009.00,2004.83,2262.47,599.93,599.00,33.42,0000 0000 0000 0000 000000
2016-02-26 05:50:13,0.17,5.19,0.00,23.39,27.52,31.29,14.62,49.15,1022.96,2029.90,2007.30,2003.53,2260.84,600.06,598.88,33.47,0000 0000 0000 0000 000000
2016-02-26 05:55:14,0.13,5.20,0.00,23.29,27.52,31.32,14.67,49.19,1022.96,2029.65,2005.43,2002.15,2259.33,600.10,599.24,33.52,0000 0000 0000 0000 000000
2016-02-26 06:00:16,0.15,5.20,0.00,23.12,27.54,31.37,14.77,49.24,1022.98,2029.31,2003.52,2000.78,2257.70,600.47,600.03,33.57,0000 0000 0000 0000 000000
2016-02-26 06:05:17,0.19,5.21,0.00,23.01,27.54,31.36,14.68,49.30,1022.98,2029.44,2001.72,1999.57,2256.25,600.15,599.85,33.62,0000 0000 0000 0000 000000
2016-02-26 06:10:18,0.16,5.22,0.00,22.94,27.52,31.22,14.65,49.45,1022.98,2029.43,1999.97,1998.27,2254.67,599.90,599.78,33.67,0000 0000 0000 0000 000000
2016-02-26 06:15:20,0.14,5.23,0.00,22.89,27.52,31.20,14.73,49.08,1022.98,2029.28,1998.30,1997.03,2253.32,600.21,600.14,33.72,0000 0000 0000 0000 000000
2016-02-26 06:20:21,0.17,5.24,0.00,22.88,27.52,31.16,14.68,49.12,1022.98,2029.37,1996.74,1995.85,2251.96,599.90,599.79,33.77,0000 0000 0000 0000 000000
2016-02-26 06:25:22,0.20,5.25,0.00,22.86,27.51,31.14,14.68,48.99,1022.98,2029.60,1995.11,1994.67,2250.60,600.22,600.36,33.82,0000 0000 0000 0000 000000
2016-02-26 06:30:24,0.17,5.26,0.00,22.83,27.50,31.14,14.67,48.89,1023.00,2029.80,1993.28,1993.40,2249.09,599.52,599.68,33.87,0000 0000 0000 0000 000000
2016-02-26 06:35:25,0.15,5.27,0.00,22.83,27.49,31.12,14.66,48.83,1022.98,2029.85,1991.82,1992.31,2247.86,600.07,600.14,33.92,0000 0000 0000 0000 000000
2016-02-26 06:40:26,0.15,5.27,0.00,22.83,27.47,31.05,14.62,48.92,1022.98,2029.96,1990.49,1991.34,2246.72,599.97,600.08,33.97,0000 0000 0000 0000 000000
2016-02-26 06:45:27,0.13,5.28,0.00,22.82,27.45,31.06,14.70,49.02,1023.06,2029.98,1989.05,1990.32,2245.53,600.36,600.40,34.02,0000 0000 0000 0000 000000
2016-02-26 06:50:28,0.14,5.29,0.00,22.87,27.45,31.04,14.70,48.97,1023.14,2029.98,1987.65,1989.27,2244.36,600.09,600.27,34.07,0000 0000 0000 0000 000000
2016-02-26 06:55:30,0.13,5.29,0.00,23.10,27.45,31.03,14.66,48.97,1023.07,2029.99,1986.38,1988.23,2243.13,600.26,599.85,34.12,0000 0000 0000 0000 000000
2016-02-26 07:00:31,0.14,5.30,0.00,23.25,27.45,31.00,14.61,49.01,1023.20,2029.97,1984.93,1987.08,2241.87,599.69,599.24,34.18,0000 0000 0000 0000 000000
2016-02-26 07:05:32,0.15,5.31,0.00,23.15,27.45,30.99,14.69,48.87,1023.24,2029.89,1983.52,1985.89,2240.54,600.09,599.77,34.23,0000 0000 0000 0000 000000
2016-02-26 07:10:33,0.15,5.32,0.00,22.96,27.45,31.11,14.65,48.96,1023.43,2029.84,1981.94,1984.78,2239.23,599.78,599.73,34.28,0000 0000 0000 0000 000000
2016-02-26 07:15:35,0.13,5.32,0.00,22.87,27.45,31.12,14.68,48.92,1023.43,2029.80,1980.47,1983.76,2238.07,599.91,600.21,34.33,0000 0000 0000 0000 000000
2016-02-26 07:20:36,0.14,5.33,0.00,22.83,27.44,31.08,14.70,48.94,1023.44,2029.91,1979.08,1982.83,2236.87,599.97,600.33,34.38,0000 0000 0000 0000 000000
2016-02-26 07:25:37,0.15,5.34,0.00,22.79,27.42,31.06,14.78,48.76,1023.45,2029.95,1977.62,1981.84,2235.69,599.97,600.40,34.43,0000 0000 0000 0000 000000
2016-02-26 07:30:39,0.13,5.34,0.00,22.76,27.42,31.06,14.77,48.87,1023.46,2029.98,1976.29,1980.86,2234.55,599.93,600.53,34.48,0000 0000 0000 0000 000000
2016-02-26 07:35:40,0.12,5.35,0.00,22.74,27.40,31.04,14.67,48.93,1023.48,2029.98,1974.93,1979.92,2233.44,600.04,600.70,34.53,0000 0000 0000 0000 000000
2016-02-26 07:40:41,0.13,5.36,0.00,22.72,27.38,31.02,14.71,48.87,1023.49,2029.99,1973.55,1978.99,2232.34,600.10,600.88,34.58,0000 0000 0000 0000 000000
2016-02-26 07:45:42,0.12,5.37,0.00,22.72,27.37,31.00,14.57,48.71,1023.53,2029.99,1972.32,1978.04,2231.25,599.78,600.44,34.63,0000 0000 0000 0000 000000
2016-02-26 07:50:44,0.13,5.37,0.00,22.69,27.35,30.95,14.77,48.74,1023.72,2029.99,1970.94,1977.12,2230.13,600.12,600.94,34.68,0000 0000 0000 0000 000000
2016-02-26 07:55:45,0.13,5.38,0.00,22.69,27.34,30.97,14.73,48.70,1023.87,2030.00,1969.62,1976.20,2228.99,599.91,600.82,34.73,0000 0000 0000 0000 000000
2016-02-26 08:00:46,0.13,5.39,0.00,22.68,27.32,30.92,14.74,48.93,1023.93,2030.00,1968.21,1975.27,2227.87,599.99,600.98,34.78,0000 0000 0000 0000 000000
2016-02-26 08:05:48,0.13,5.39,0.00,22.68,27.31,30.93,14.68,48.87,1023.94,2030.00,1966.87,1974.26,2226.78,600.12,601.03,34.83,0000 0000 0000 0000 000000
2016-02-26 08:10:49,0.13,5.40,0.00,22.64,27.30,30.90,14.71,48.89,1023.95,2030.03,1965.63,1973.43,2225.74,600.04,601.10,34.88,0000 0000 0000 0000 000000
2016-02-26 08:15:51,0.13,5.40,0.00,22.62,27.27,30.88,14.77,48.80,1023.95,2030.06,1964.31,1972.56,2224.63,600.12,601.29,34.93,0000 0000 0000 0000 000000
2016-02-26 08:20:52,0.12,5.41,0.00,22.63,27.26,30.85,14.71,48.78,1024.01,2030.17,1963.07,1971.74,2223.69,600.04,601.31,34.98,0000 0000 0000 0000 000000
2016-02-26 08:25:53,0.13,5.42,0.00,22.62,27.25,30.84,14.72,48.83,1024.17,2030.32,1961.86,1970.83,2222.69,600.21,601.41,35.04,0000 0000 0000 0000 000000
2016-02-26 08:30:55,0.12,5.42,0.00,22.62,27.24,30.86,14.78,48.83,1024.31,2030.32,1960.62,1969.94,2221.60,600.11,601.42,35.09,0000 0000 0000 0000 000000
2016-02-26 08:35:56,0.17,5.43,0.00,22.62,27.22,30.83,14.75,48.91,1024.31,2030.69,1959.45,1969.06,2220.55,599.98,601.22,35.14,0000 0000 0000 0000 000000
2016-02-26 08:40:57,0.13,5.44,0.00,22.58,27.22,30.83,14.69,48.73,1024.38,2030.83,1958.20,1968.13,2219.50,599.71,601.18,35.19,0000 0000 0000 0000 000000
2016-02-26 08:45:59,0.13,5.45,0.00,22.61,27.20,30.83,14.78,48.87,1024.42,2030.89,1956.87,1967.28,2218.45,600.12,601.49,35.24,0000 0000 0000 0000 000000
2016-02-26 08:51:00,0.13,5.45,0.00,22.60,27.20,30.84,14.75,48.97,1024.40,2030.92,1955.71,1966.38,2217.44,600.13,601.47,35.29,0000 0000 0000 0000 000000
2016-02-26 08:56:02,0.12,5.46,0.00,22.59,27.18,30.83,14.70,48.92,1024.42,2030.94,1954.52,1965.55,2216.45,599.88,601.54,35.34,0000 0000 0000 0000 000000
2016-02-26 09:01:03,0.11,5.47,0.00,22.59,27.17,30.79,14.72,48.91,1024.43,2030.97,1953.40,1964.69,2215.51,599.58,601.10,35.39,0000 0000 0000 0000 000000
2016-02-26 09:06:04,0.09,5.47,0.00,22.57,27.16,30.82,14.58,48.67,1024.43,2030.97,1952.25,1963.90,2214.49,599.65,601.12,35.44,0000 0000 0000 0000 000000
2016-02-26 09:11:06,0.12,5.48,0.00,22.57,27.15,30.81,14.73,48.87,1024.44,2030.97,1950.94,1963.01,2213.39,599.92,601.35,35.49,0000 0000 0000 0000 000000
2016-02-26 09:16:07,0.13,5.48,0.00,22.56,27.15,30.79,14.66,49.02,1024.44,2030.98,1949.72,1962.10,2212.40,599.76,601.27,35.54,0000 0000 0000 0000 000000
2016-02-26 09:21:08,0.12,5.49,0.00,22.55,27.13,30.76,14.72,48.99,1024.46,2030.98,1948.51,1961.18,2211.38,599.64,601.18,35.59,0000 0000 0000 0000 000000
2016-02-26 09:26:09,0.12,5.50,0.00,22.53,27.12,30.76,14.72,48.95,1024.48,2030.99,1947.40,1960.37,2210.43,599.94,601.52,35.64,0000 0000 0000 0000 000000
2016-02-26 09:31:10,0.10,5.50,0.00,22.52,27.12,30.74,14.71,48.98,1024.50,2030.99,1946.24,1959.62,2209.48,600.02,601.66,35.69,0000 0000 0000 0000 000000
2016-02-26 09:36:11,0.12,5.51,0.00,22.52,27.10,30.77,14.74,49.11,1024.59,2030.99,1944.92,1958.72,2208.41,600.01,601.80,35.74,0000 0000 0000 0000 000000
2016-02-26 09:41:13,0.11,5.52,0.00,22.49,27.10,30.75,14.69,48.87,1024.80,2030.99,1943.76,1957.92,2207.44,599.86,601.78,35.79,0000 0000 0000 0000 000000
2016-02-26 09:46:14,0.13,5.52,0.00,22.45,27.08,30.74,14.70,48.90,1024.76,2031.00,1942.51,1957.04,2206.38,600.15,602.08,35.84,0000 0000 0000 0000 000000
2016-02-26 09:51:15,0.12,5.53,0.00,22.46,27.07,30.71,14.82,48.91,1024.79,2031.00,1941.34,1956.13,2205.35,599.95,601.89,35.89,0000 0000 0000 0000 000000
2016-02-26 09:56:17,0.12,5.53,0.00,22.46,27.07,30.71,14.77,48.97,1024.89,2031.00,1940.19,1955.28,2204.32,599.91,602.00,35.94,0000 0000 0000 0000 000000
2016-02-26 10:01:18,0.11,5.54,0.00,22.45,27.05,30.66,14.72,48.98,1024.92,2031.00,1939.04,1954.48,2203.40,600.19,602.17,36.00,0000 0000 0000 0000 000000
2016-02-26 10:06:19,0.10,5.55,0.00,22.45,27.05,30.67,14.70,48.83,1024.92,2031.01,1937.92,1953.74,2202.53,599.86,601.85,36.05,0000 0000 0000 0000 000000
2016-02-26 10:11:20,0.11,5.55,0.00,22.44,27.03,30.68,14.68,48.89,1024.92,2031.00,1936.79,1952.88,2201.57,599.80,601.99,36.10,0000 0000 0000 0000 000000
2016-02-26 10:16:22,0.11,5.56,0.00,22.41,27.02,30.72,14.72,48.81,1024.92,2031.02,1935.73,1952.05,2200.59,599.68,601.79,36.15,0000 0000 0000 0000 000000
2016-02-26 10:21:23,0.12,5.56,0.00,22.39,27.01,30.67,14.77,48.88,1024.93,2031.03,1934.63,1951.23,2199.67,600.28,602.38,36.20,0000 0000 0000 0000 000000
2016-02-26 10:26:24,0.13,5.57,0.00,22.38,27.00,30.70,14.83,48.80,1024.94,2031.04,1933.46,1950.32,2198.63,599.89,602.03,36.25,0000 0000 0000 0000 000000
2016-02-26 10:31:26,0.10,5.58,0.00,22.37,26.99,30.65,14.69,48.76,1025.12,2031.08,1932.34,1949.60,2197.70,599.97,602.25,36.30,0000 0000 0000 0000 000000
2016-02-26 10:36:27,0.13,5.58,0.00,22.36,26.97,30.61,14.68,48.73,1025.24,2031.33,1931.09,1948.83,2196.78,600.14,602.54,36.35,0000 0000 0000 0000 000000
2016-02-26 10:41:28,0.11,5.59,0.00,22.36,26.96,30.62,14.82,48.76,1025.36,2031.41,1929.99,1948.01,2195.84,599.92,602.48,36.40,0000 0000 0000 0000 000000
2016-02-26 10:46:30,0.13,5.60,0.00,22.35,26.95,30.61,14.78,48.83,1025.40,2031.48,1928.86,1947.16,2194.91,600.21,602.62,36.45,0000 0000 0000 0000 000000
2016-02-26 10:51:32,0.15,5.60,0.00,22.32,26.95,30.57,14.76,48.69,1025.40,2031.69,1927.79,1946.38,2194.00,600.24,602.87,36.50,0000 0000 0000 0000 000000
2016-02-26 10:56:33,0.12,5.61,0.00,22.33,26.93,30.54,14.76,48.78,1025.42,2031.83,1926.70,1945.65,2193.07,599.92,602.49,36.55,0000 0000 0000 0000 000000
2016-02-26 11:01:34,0.12,5.62,0.00,22.32,26.92,30.53,14.84,48.67,1025.66,2031.85,1925.51,1944.79,2192.05,600.14,602.91,36.60,0000 0000 0000 0000 000000
2016-02-26 11:06:35,0.11,5.62,0.00,22.31,26.91,30.53,14.78,48.78,1025.83,2031.92,1924.29,1943.95,2191.04,600.20,603.04,36.65,0000 0000 0000 0000 000000
2016-02-26 11:11:36,0.12,5.63,0.00,22.30,26.90,30.52,14.77,48.74,1025.83,2031.94,1923.13,1943.09,2190.07,599.85,602.73,36.70,0000 0000 0000 0000 000000
2016-02-26 11:16:37,0.15,5.64,0.00,22.30,26.89,30.52,14.82,48.83,1025.67,2031.95,1921.79,1942.20,2189.04,600.09,602.80,36.75,0000 0000 0000 0000 000000
2016-02-26 11:21:38,0.12,5.64,0.00,22.30,26.88,30.51,14.74,48.98,1025.46,2031.98,1920.62,1941.33,2188.05,599.94,602.66,36.81,0000 0000 0000 0000 000000
2016-02-26 11:26:39,0.09,5.65,0.00,22.30,26.87,30.50,14.77,48.87,1025.45,2031.98,1919.72,1940.69,2187.14,599.97,602.49,36.86,0000 0000 0000 0000 000000
2016-02-26 11:31:40,0.11,5.65,0.00,22.30,26.87,30.48,14.74,48.81,1025.54,2031.99,1918.63,1939.92,2186.26,599.90,602.49,36.91,0000 0000 0000 0000 000000
2016-02-26 11:36:42,0.12,5.66,0.00,22.32,26.85,30.50,14.78,48.75,1025.51,2031.99,1917.49,1939.07,2185.32,600.22,602.91,36.96,0000 0000 0000 0000 000000
2016-02-26 11:41:43,0.12,5.67,0.00,22.32,26.85,30.48,14.73,48.86,1025.56,2031.99,1916.38,1938.24,2184.39,599.68,602.32,37.01,0000 0000 0000 0000 000000
2016-02-26 11:46:45,0.11,5.67,0.00,22.32,26.85,30.48,14.75,48.72,1025.65,2031.99,1915.31,1937.49,2183.45,599.75,602.51,37.06,0000 0000 0000 0000 000000
2016-02-26 11:51:46,0.10,5.68,0.00,22.31,26.84,30.50,14.75,48.89,1025.66,2031.99,1914.12,1936.74,2182.49,600.06,602.74,37.11,0000 0000 0000 0000 000000
2016-02-26 11:56:47,0.09,5.68,0.00,22.30,26.83,30.50,14.76,48.80,1025.75,2031.99,1913.07,1935.97,2181.52,600.21,603.09,37.16,0000 0000 0000 0000 000000
2016-02-26 12:01:48,0.13,5.69,0.00,22.29,26.82,30.46,14.73,48.76,1025.64,2031.99,1911.89,1935.08,2180.60,600.02,602.82,37.21,0000 0000 0000 0000 000000
2016-02-26 12:06:49,0.13,5.69,0.00,22.29,26.82,30.45,14.66,48.67,1025.81,2031.99,1910.69,1934.17,2179.59,599.89,602.79,37.26,0000 0000 0000 0000 000000
2016-02-26 12:11:50,0.12,5.70,0.00,22.28,26.82,30.50,14.72,48.73,1025.87,2031.99,1909.66,1933.43,2178.71,600.17,603.09,37.31,0000 0000 0000 0000 000000
2016-02-26 12:16:52,0.12,5.71,0.00,22.29,26.80,30.49,14.73,48.67,1025.88,2031.99,1908.45,1932.58,2177.67,599.87,602.80,37.36,0000 0000 0000 0000 000000
2016-02-26 12:21:53,0.08,5.71,0.00,22.27,26.80,30.47,14.73,48.65,1025.89,2031.99,1907.45,1931.83,2176.75,599.49,602.59,37.41,0000 0000 0000 0000 000000
2016-02-26 12:26:55,0.11,5.72,0.00,22.27,26.80,30.42,14.73,48.70,1025.89,2031.99,1906.20,1931.00,2175.78,600.08,603.00,37.46,0000 0000 0000 0000 000000
2016-02-26 12:31:56,0.11,5.72,0.00,22.25,26.79,30.44,14.77,48.73,1025.90,2031.99,1905.08,1930.17,2174.94,599.92,602.92,37.51,0000 0000 0000 0000 000000
2016-02-26 12:36:57,0.12,5.73,0.00,22.24,26.77,30.43,14.80,48.74,1025.91,2031.99,1904.00,1929.39,2174.04,600.13,603.00,37.56,0000 0000 0000 0000 000000
2016-02-26 12:41:58,0.13,5.74,0.00,22.26,26.77,30.43,14.72,48.63,1025.91,2031.99,1902.84,1928.58,2173.10,599.64,602.63,37.61,0000 0000 0000 0000 000000
2016-02-26 12:46:59,0.12,5.74,0.00,22.23,26.77,30.41,14.74,48.62,1025.91,2031.99,1901.60,1927.71,2172.08,599.63,602.67,37.66,0000 0000 0000 0000 000000
2016-02-26 12:52:00,0.10,5.75,0.00,22.23,26.76,30.40,14.80,48.63,1025.94,2031.99,1900.35,1926.91,2171.08,600.22,603.24,37.71,0000 0000 0000 0000 000000
2016-02-26 12:57:02,0.11,5.75,0.00,22.22,26.75,30.39,14.69,48.65,1026.09,2032.00,1899.57,1926.06,2170.24,599.89,602.92,37.77,0000 0000 0000 0000 000000